Showing default

KUIPER-00597, 69282

Orbit data source: Space-Track

KUIPER-00597, 69282 is a payload satellite owned by Kuiper Systems (US) in LEO that was launched on Fri, 29 May 2026 UTC via an ATLAS V 551 launch vehicle from the Air Force Eastern Test Range (AFETR). Payload-class satellites include a variety of spacecraft equipped with specific instruments for various scientific and technological missions. These include communications satellites like Starlink; space stations such as the ISS; scientific satellites like the Hubble; Earth observation satellites from companies like Planet Labs, Umbra, and HawkEye 360; GPS; miniature CubeSats for education and research; and military/defense satellites.

Loading next visibility...
Identifier
69282, 2026-118R
Orbit
LEO
Country
Flag of USUS
Related business
Manufacturer
Kuiper Systems
Mission
Operational spacecraft
Bus & Motor
KUIPER, Unknown motor
Mass
~490 kg wet, ~490 kg dry
Launch date (UTC)
2026-05-29 (3 weeks ago)
Launch vehicle
ATLAS V 551
Launch site
Air Force Eastern Test Range (AFETR)
Object type
Payload
Rocket body
Debris
Shape & HBR
Unknown
Radar Cross Section
Large (>1 m²)

Expand to show TLE details & history
Last TLE update: 20 hours ago

TLE from 20 hours ago
0 KUIPER-00597
1 69282U 26118R   26170.99463764  .00012914  00000-0  36014-3 0  9993
2 69282  51.8650  39.7423 0006949 182.1001 177.9958 15.37083947  4415
Epoch: 2026-06-19T23:52Z
TLE epoch observation values (Epoch: 2026-06-19T23:52:16.692Z)
Latitude
0.00004°
Longitude
133.45716°
Altitude
460.245 km
Speed
7.635 km/s
True Right ascension
02h 38m 58s
True Declination
0° 00' 00"
Sunlit
Object was in daylight at epoch
Visualization orbit readout
Latitude
Unknown
Longitude
Unknown
Altitude
Unknown
Speed
Unknown
Apparent Right ascension
Unknown
Apparent Declination
Unknown
Sunlit
N/A
Visualization observer readout
Local Sidereal Time
07:11:39
Azimuth
Unknown
Elevation
Unknown
Doppler factor
Unknown
Orbital elements
Apogee altitude
459.954 km
Perigee altitude
450.457 km
Semi-major axis
6,833.343 km
Eccentricity
0.00069
Inclination
51.865°
RAAN
39.7423°
Arg. of periapsis
182.1001°
True anomaly
177.99858°
Mean anomaly
177.9958°
Eccentric anomaly
177.99719°
Mean motion
3.84232 °/min
Orbital period
93.69 mins
BSTAR
0.00036014
Loading maneuver chart data...
Computing Atmospheric mass density...
Loading historical data...
Loading historical data...
Loading historical data...
Loading historical data...
Loading historical data...
Loading historical data...
Loading historical data...

Documentation

Showing up to 5 results
|